Skagway, AK

8:39 AM AKDT on October 22, 2017 (GMT -0800)
Skagway

Weather History for PAGY - August, 2012

Change the Weather History Date:

Wednesday, August 29, 2012

  Actual Average Record
Temperature  
Mean Temperature 58 °F -  
Max Temperature 70 °F 58 °F 74 °F (1983)
Min Temperature 46 °F 47 °F 33 °F (1984)
Degree Days  
Heating Degree Days 7    
Growing Degree Days 8 (Base 50)    
Moisture  
Dew Point 40 °F    
Average Humidity 55    
Maximum Humidity 86    
Minimum Humidity 31    
Precipitation  
Precipitation 0.00 in - - ()
Sea Level Pressure  
Sea Level Pressure 30.00 in    
Wind  
Wind Speed 5 mph (NNE)    
Max Wind Speed 18 mph    
Max Gust Speed 25 mph    
Visibility 10 miles    
Events      
Averages and records for this station are not official NWS values.
T = Trace of Precipitation, MM = Missing Value Source: NWS Daily Summary

Daily Weather History Graph

Daily Weather History Graph

Search for Another Location

Airport or City:

Trip Planner

Search our weather history database for the weather conditions in past years. The results will help you decide how hot, cold, wet, or windy it might be!

Date:

Astronomy

Aug. 29, 2012 Rise Set
Actual Time 5:52 AM AKDT 8:10 PM AKDT
Civil Twilight 5:07 AM AKDT 8:54 PM AKDT
Nautical Twilight 4:08 AM AKDT 9:52 PM AKDT
Astronomical Twilight 2:51 AM AKDT 11:07 PM AKDT
Moon 7:00 PM AKDT (8/29) 3:40 AM AKDT (8/29)
Length of Visible Light 15h 47m
Length of Day
14h 17m
Waxing Gibbous, 96% of the Moon is Illuminated
Aug 29
Waxing Gibbous
Aug 31
Full
Sep 8
Last Quarter
Sep 15
New
Sep 22
First Quarter

Hourly Weather History & Observations

Time (AKDT) Temp. Dew Point Humidity Pressure Visibility Wind Dir Wind Speed Gust Speed Precip Events Conditions
12:53 AM 50.0 °F 42.1 °F 74% 29.95 in 10.0 mi Calm Calm - N/A   Overcast
1:53 AM 54.0 °F 37.9 °F 55% 29.96 in 10.0 mi NNE 5.8 mph - N/A   Overcast
2:53 AM 53.1 °F 37.9 °F 57% 29.96 in 10.0 mi North 8.1 mph - N/A   Overcast
3:53 AM 53.1 °F 37.9 °F 57% 29.97 in 10.0 mi NNE 5.8 mph - N/A   Overcast
4:53 AM 51.1 °F 39.0 °F 63% 29.98 in 10.0 mi NNE 4.6 mph - N/A   Mostly Cloudy
5:53 AM 53.1 °F 37.0 °F 55% 30.00 in 10.0 mi NNW 5.8 mph - N/A   Overcast
6:53 AM 51.1 °F 39.0 °F 63% 30.01 in 10.0 mi NW 6.9 mph - N/A   Overcast
7:53 AM 53.1 °F 39.9 °F 61% 30.03 in 10.0 mi Variable 3.5 mph - N/A   Overcast
8:53 AM 57.0 °F 37.0 °F 47% 30.04 in 10.0 mi NNE 12.7 mph - N/A   Overcast
9:53 AM 60.1 °F 37.9 °F 44% 30.04 in 10.0 mi NE 15.0 mph 21.9 mph N/A   Clear
10:53 AM 62.1 °F 36.0 °F 38% 30.03 in 10.0 mi NE 18.4 mph 25.3 mph N/A   Clear
11:53 AM 64.0 °F 35.1 °F 34% 30.02 in 10.0 mi NE 9.2 mph - N/A   Mostly Cloudy
12:53 PM 64.9 °F 35.1 °F 33% 30.01 in 10.0 mi NNE 10.4 mph - N/A   Scattered Clouds
1:53 PM 66.9 °F 35.1 °F 31% 30.00 in 10.0 mi NNE 10.4 mph - N/A   Clear
2:53 PM 68.0 °F 36.0 °F 31% 29.99 in 10.0 mi ENE 4.6 mph - N/A   Partly Cloudy
3:53 PM 68.0 °F 37.9 °F 33% 29.98 in 10.0 mi South 4.6 mph - N/A   Clear
4:53 PM 66.9 °F 39.0 °F 36% 29.98 in 10.0 mi Calm Calm - N/A   Clear
5:53 PM 60.1 °F 44.1 °F 55% 29.98 in 10.0 mi SW 3.5 mph - N/A   Clear
6:53 PM 57.0 °F 45.0 °F 64% 29.98 in 10.0 mi Calm Calm - N/A   Clear
7:53 PM 55.0 °F 45.0 °F 69% 30.00 in 10.0 mi NNE 3.5 mph - N/A   Clear
8:53 PM 53.1 °F 44.1 °F 71% 30.01 in 10.0 mi Calm Calm - N/A   Clear
9:53 PM 51.1 °F 44.1 °F 77% 30.04 in 10.0 mi Calm Calm - N/A   Clear
10:53 PM 48.0 °F 43.0 °F 83% 30.05 in 10.0 mi Calm Calm - N/A   Clear
11:53 PM 46.9 °F 43.0 °F 86% 30.05 in 10.0 mi Calm Calm - N/A   Clear